AirNav   Everest Fuels
 
 1020 users online  

3OR8 Cline Falls Air Park
Redmond, Oregon, USA

GOING TO REDMOND?


FAA INFORMATION EFFECTIVE 07 OCTOBER 2021

Location

FAA Identifier: 3OR8
Lat/Long: 44-16-59.4280N 121-16-09.1310W
44-16.990467N 121-16.152183W
44.2831744,-121.2692031
(estimated)
Elevation: 2920 ft. / 890 m (estimated)
Variation: 19E (1985)
From city: 4 miles W of REDMOND, OR
Time zone: UTC -7 (UTC -8 during Standard Time)
Zip code: 97756

Airport Operations

Airport use: Private use. Permission required prior to landing
Activation date: 01/1969
Control tower: no
ARTCC: SEATTLE CENTER
FSS: MC MINNVILLE FLIGHT SERVICE STATION
Attendance: CONTINUOUS
Wind indicator: yes
Segmented circle: no

Airport Communications

WX ASOS at RDM (5 nm E): 119.025 (541-504-8743)
WX AWOS-3 at BDN (12 nm S): 134.425 (541-382-1477)
WX AWOS-3PT at S39 (16 nm E): 118.325 (541-447-4060)

Nearby radio navigation aids

VOR radial/distance  VOR name  Freq  Var
DSDr021/2.3DESCHUTES VORTAC117.6018E

Airport Services

Airframe service: NONE
Powerplant service: NONE

Runway Information

Runway E/W

Dimensions: 3000 x 150 ft. / 914 x 46 m
Surface: dirt
Runway edge markings: E/W WHITE BNDRY MKRS, WITH REFLECTORS.
RUNWAY E  RUNWAY W
Traffic pattern: leftleft
Markings: NSTDNSTD
Obstructions: pline treesnone
P-LINE PARALLEL ON N SIDE.

Airport Ownership and Management from official FAA records

Ownership: Privately-owned
Owner: CLINE FALLS ARPT ASSOC, INC
8301 W. HWY 126
REDMOND, OR 97756
Phone 503-548-5523
Manager: D.C. KELLY
8301 W. HWY 126
REDMOND, OR 97756
Phone 503-548-5523
ADDITIONAL CONTACT: AMBERS THORNBURGH 19419 W HWY 126 REDMOND, OR 97756 541-420-0607

Airport Operational Statistics

Aircraft based on the field: 11
Single engine airplanes: 10
Ultralights: 1
    

Additional Remarks

FOR CD CTC SEATTLE ARTCC AT 253-351-3694.

Instrument Procedures

There are no published instrument procedures at 3OR8.

Some nearby airports with instrument procedures:

KRDM - Roberts Field Airport (5 nm E)
KBDN - Bend Municipal Airport (12 nm S)
S39 - Prineville Airport (16 nm E)
S33 - Madras Municipal Airport (24 nm N)
S21 - Sunriver Airport (26 nm S)
 
Loc | Ops | Rwys | IFR | FBO | Links
Com | Nav | Svcs | Stats | Notes
Area around 3OR8 (Cline Falls Air Park)
 
Road maps at: MapQuest Bing Google
 
Aerial photo
WARNING: Photo may not be current or correct
Aerial photo of 3OR8 (Cline Falls Air Park)
Photo taken 24-Mar-2014
looking east.

Do you have a better or more recent aerial photo of Cline Falls Air Park that you would like to share? If so, please send us your photo.

 
Sectional chart

 
Airport distance calculator
Flying to Cline Falls Air Park? Find the distance to fly.

From to 3OR8

Sunrise and sunset
Times for 19-Oct-2021
 Local
(UTC-7)
 Zulu
(UTC)
Morning civil twilight06:5713:57
Sunrise07:2614:26
Sunset18:1401:14
Evening civil twilight18:4301:43

Current date and time
Zulu (UTC)  19-Oct-2021 12:30:53
Local (UTC-7)  19-Oct-2021 05:30:53
 
METAR
KRDM 
5nm E 
191156Z AUTO 14007KT 10SM CLR 02/M01 A2992 RMK AO2 SLP130 T00221006 10044 20000 58009
KBDN 
12nm S 
191215Z AUTO 18005KT 10SM CLR 02/00 A2994 RMK AO2
KS39 
16nm E 
191215Z AUTO 13005KT 10SM FEW042 BKN050 BKN060 00/M01 A2994 RMK AO2
TAF
KRDM 
5nm E 
191120Z 1912/2012 15005KT P6SM FEW250 FM191900 19014G20KT P6SM SCT250 FM200100 20011KT P6SM SCT150 BKN250 FM200500 18018G27KT P6SM BKN100
KBDN 
12nm S 
191120Z 1912/2012 16005KT P6SM FEW250 FM192000 20016G23KT P6SM SCT250 FM200100 21010KT P6SM SCT150 BKN250 FM200500 16012G20KT P6SM BKN100
NOTAMs
Click for the latest NOTAMs
NOTAMs are issued by the DoD/FAA and will open in a separate window not controlled by AirNav.

 

 
 

Would you like to see your business listed on this page?

 If your business provides an interesting product or service to pilots, flight crews, aircraft, or users of the Cline Falls Air Park, you should consider listing it here.  To start the listing process, click on the button below
 
Add a business
 

Other Pages about Cline Falls Air Park

Update a link
 
Copyright © AirNav, LLC. All rights reserved. Privacy Policy  Contact